Location: McMath-Hulbert Observatory
(42.6964°N, 83.3187°W)
Time: 12:02:46
(UTC-05:00)

Daily predictions for brighter satellites

Satellite Brightness Start Highest point End
(mag) Time Altitude Azimuth Time Altitude Azimuth Time Altitude Azimuth
Cosmos 1844 3.8 17:53:03 10° NNW 17:58:45 58° ENE 18:04:27 10° SE
Cosmos 841 Rocket 3.6 17:55:42 10° S 18:00:55 65° ESE 18:06:09 10° NNE
Cosmos 44 Rocket 3.9 17:56:13 10° S 18:01:05 44° ESE 18:05:53 10° NE
Cosmos 1674 2.6 17:58:22 10° S 18:02:10 79° E 18:06:02 10° N
CENTAUR R/B 2.7 17:56:57 10° SW 18:03:01 84° NW 18:09:58 10° NE
IDEFIX/ARIANE 42P 2.8 18:01:31 10° S 18:06:43 77° WSW 18:11:59 10° NNW
Lacrosse 5 3.5 18:04:20 10° WNW 18:08:27 24° NNW 18:12:35 10° NNE
SL-14 R/B 4.3 18:05:17 10° SSE 18:08:34 26° E 18:11:53 10° NNE
COSMOS 2428 2.9 18:06:17 10° SSW 18:12:00 77° WNW 18:17:45 10° NNE
Cosmos 2237 Rocket 2.8 18:07:48 10° S 18:12:54 37° ESE 18:18:02 10° NE
Cosmos 1484 Rocket 3.0 18:09:47 10° SSE 18:13:34 50° ENE 18:17:26 10° N
Cosmos 1726 2.7 18:11:54 10° N 18:15:26 37° ENE 18:18:58 10° SSE
Cosmos 1743 Rocket 3.6 18:11:05 10° S 18:15:33 78° E 18:20:03 10° N
CZ-2C R/B 3.0 18:10:56 10° S 18:15:53 62° W 18:20:43 10° NNW
SL-16 R/B 3.6 18:15:01 10° SE 18:18:35 17° E 18:21:41 12° ENE
Cosmos 1328 Rocket 3.7 18:14:29 10° N 18:18:58 86° W 18:23:24 10° S
Cosmos 2151 3.5 18:15:07 10° SSE 18:18:58 36° E 18:22:50 10° NNE
Cosmos 1300 3.1 18:15:34 10° N 18:19:13 40° ENE 18:22:50 10° SSE
MSX 3.9 18:16:17 10° SSE 18:22:00 85° WSW 18:27:46 10° NNW
Cosmos 1515 Rocket 3.6 18:22:37 10° N 18:27:07 86° E 18:31:33 10° S
Aureole 2 Rocket 3.7 18:27:58 10° SSE 18:31:05 27° E 18:33:24 16° NE
SKYMED 2 3.6 18:27:15 10° NNE 18:31:34 59° E 18:35:51 10° S
Cosmos 1151 Rocket 2.9 18:28:06 10° N 18:32:22 66° E 18:36:38 10° SSE
Cosmos 836 Rocket 4.5 18:27:46 10° SSW 18:32:59 80° ESE 18:38:17 10° NNE
BREEZE M DEB (TANK) 1.6 18:33:09 10° WNW 18:36:04 46° NNE 18:37:00 25° E
Lacrosse 5 rocket 1.6 18:34:00 10° NW 18:37:37 41° NE 18:40:18 17° ESE
Abrixas 3.8 18:36:11 10° SSW 18:38:42 26° SE 18:39:46 21° ESE
Cosmos 1844 Rocket 3.7 18:36:30 10° NW 18:41:57 50° WSW 18:47:22 10° S
Cosmos 1500 Rocket 3.7 18:37:51 10° SSW 18:42:09 75° W 18:46:32 10° N
Meteor 1-28 Rocket 3.2 18:40:41 10° NNE 18:44:20 55° E 18:47:59 10° S
CZ-4 R/B 4.0 18:41:21 10° SSW 18:44:29 23° W 18:47:39 10° NW
Cosmos 1634 Rocket 4.1 18:39:09 10° N 18:45:22 80° W 18:51:30 10° S
Meteor 1-11 4.3 18:40:45 10° S 18:46:18 60° E 18:51:58 10° NNE
Cosmos 372 Rocket 3.8 18:49:01 10° NNW 18:54:08 77° ENE 18:59:14 10° SSE
Cosmos 1328 4.3 18:51:30 10° SSW 18:55:23 61° W 18:59:19 10° N
Sich 1 3.9 18:52:53 10° SSE 18:56:42 28° E 18:57:08 28° ENE
NOSS 0 Rocket 4.0 18:52:31 10° SSW 18:58:46 83° WNW 19:05:01 10° NNE
Cosmos 1980 3.7 18:54:43 10° SSW 19:00:24 84° WNW 19:06:08 10° NNE
Cosmos 1633 Rocket 4.0 18:57:28 10° SSE 19:00:37 27° ESE 19:00:37 27° ESE
Lacrosse 4 Rocket 3.5 18:59:47 10° N 19:00:21 12° NNE 19:00:21 12° NNE
Cosmos 2084 4.0 19:01:17 10° SW 19:05:02 48° NW 19:07:19 21° NNE
Cosmos 540 Rocket 3.6 19:00:22 10° SSW 19:05:32 78° WNW 19:10:44 10° NNE
FENGYUN 3A 4.0 19:01:34 10° SE 19:06:32 40° ENE 19:11:31 10° N
OTV 4 2.8 19:06:18 10° WSW 19:08:28 19° SSW 19:09:45 15° SSE
SJ-6B 2.8 19:04:41 10° SSE 19:08:42 68° ENE 19:12:50 10° N
Meteor 2-10 4.0 19:03:46 10° NNW 19:08:52 85° W 19:14:04 10° S
USA 215 3.2 19:02:49 10° SE 19:09:23 89° NNE 19:15:59 10° NW
ALOS 2.6 19:05:08 10° SE 19:09:28 40° ENE 19:13:51 10° N
Cosmos 44 3.5 19:04:56 10° SW 19:10:12 76° NW 19:13:37 21° NNE
Cosmos 2333 Rocket 2.8 19:09:41 10° SW 19:15:12 55° WNW 19:20:47 10° NNE
METEOR-M 4.1 19:11:11 10° SSE 19:16:33 90° S 19:21:56 10° NNW
Resurs 01 Rocket 1.9 19:17:34 44° E 19:17:46 45° ENE 19:22:01 10° N
ATLAS 5 CENTAUR R/B 4.3 19:16:21 10° N 19:17:55 11° NNE 19:18:03 11° NNE
Cosmos 1461 3.2 19:14:25 10° S 19:18:18 43° ESE 19:18:18 43° ESE
COSMO-SKYMED 1 3.8 19:15:27 10° N 19:19:32 41° WNW 19:23:36 10° SW
Cosmos 1703 3.1 19:16:29 10° S 19:20:22 80° E 19:21:52 36° NNE
Cosmos 1707 Rocket 3.3 19:18:07 10° N 19:22:27 73° E 19:26:46 10° SSE
Cosmos 2058 3.7 19:20:41 10° SSW 19:24:41 51° WNW 19:28:42 10° N
Cosmos 2219 Rocket 3.5 19:19:29 10° SW 19:24:41 37° WNW 19:29:54 10° N
SL-19 R/B 4.2 19:23:52 10° SSE 19:29:49 78° ENE 19:35:28 10° NNW
FREGAT/IRIS 4.1 19:27:22 10° S 19:32:18 20° NNW 19:33:24 10° NNW
Cosmos 2278 Rocket 3.3 19:25:42 10° NW 19:31:05 45° WSW 19:36:27 10° S
Cosmos 1666 Rocket 3.3 19:29:12 10° S 19:33:32 77° E 19:34:05 65° NE
Cosmos 1626 2.2 19:30:46 10° S 19:34:03 68° S 19:34:03 68° S
Spot 2 Rocket 3.3 19:32:56 10° SSE 19:37:57 72° ENE 19:42:59 10° N
Cosmos 1340 Rocket 3.8 19:34:36 10° SSW 19:38:23 45° WNW 19:40:58 18° N
Cosmos 1538 Rocket 3.9 19:42:27 10° SSW 19:47:44 86° ESE 19:48:47 59° NNE
BREEZE-M DEB (TANK) 4.3 19:45:53 10° W 19:46:30 16° WNW 19:46:30 16° WNW
Cosmos 1356 Rocket 3.6 19:44:00 10° SSW 19:47:33 62° WSW 19:47:33 62° WSW
USA 229 DEB 3.9 19:43:08 10° S 19:49:29 47° ESE 19:49:29 47° ESE
USA 229 3.9 19:43:15 10° S 19:49:32 47° ESE 19:49:32 47° ESE
Lacrosse 5 3.9 19:49:58 10° NW 19:52:57 16° N 19:52:57 16° N
CENTAUR R/B 4.4 19:49:42 10° W 19:54:51 24° NNW 19:59:12 14° NNE
Cosmos 2237 Rocket 3.6 19:51:52 10° WSW 19:56:57 34° NW 20:01:05 15° N
Nadezhda 4 Rocket 4.1 19:51:15 10° SSW 19:57:29 75° W 20:03:49 10° N
Aureole 1 Rocket 3.8 19:56:51 10° S 20:01:10 63° SSE 20:01:10 63° SSE
Cosmos 2369 Rocket 4.2 19:57:11 10° N 19:58:25 15° N 19:58:25 15° N
SL-16 R/B 2.4 19:56:27 10° SSW 20:02:04 67° WNW 20:03:37 47° N
BREEZE-M DEB (TANK) 4.5 19:52:11 10° W 20:08:13 52° N 20:08:56 49° NNE
Cosmos 1092 Rocket 4.1 20:09:30 10° SSW 20:15:49 75° W 20:20:03 23° N
Lacrosse 5 rocket 3.4 20:13:28 10° WNW 20:16:06 24° WSW 20:16:06 24° WSW
Resurs 01 Rocket 4.3 20:55:07 17° W 20:55:07 17° W 20:57:29 10° NW
